User: anonymous   Login
Location: Oshawa
(43.9000°N, 78.8670°W)
Time: 06:50:50
(UTC-04:00)
Language:

Cosmos 1408 Rocket - Orbit

View from above orbital plane
View from above orbital plane
View from above satellite
View from above satellite

Ground track
Ground track

The orbit data is extracted from the following two-line orbital elements,

1 13553U 82092B   15242.77201571  .00000211  00000-0  22375-4 0  9999
2 13553 082.5694 125.5902 0022832 056.1070 007.3334 14.83939140779682
Epoch (UTC): 30 August 2015 18:31:42
Eccentricity: 0.0022832
inclination: 82.5694°
perigee height: 601 km
apogee height: 633 km
right ascension of ascending node: 125.5902°
argument of perigee: 56.1070°
revolutions per day: 14.83939140
mean anomaly at epoch: 7.3334°
orbit number at epoch: 77968

The dashed part of the orbit path shows where the satellite is in the earth's shadow,  

DLR